Flag for Switzerland Weather past 2 weeks in Delémont, Jura, Switzerland

Now
74 °F

Mild.


Feels Like: 77 °F
Forecast: 54 / 76 °F
Wind: 13 mph from East

Location: Grenchen

Current Time: Jul 31, 2014 at 2:34:32 PM

Latest Report: Jul 31, 2014 at 1:00 PM


Visibility: N/A

Pressure: 29.95 "Hg

Humidity: 61%

Dew point: 60 °F

Location of DelémontLocation

Historic Weather in Delémont — Graph

°F

Delémont temperature yesterday

Maximum temperature yesterday: 67 °F (at 5:00 PM)
Minimum temperature yesterday: 60 °F (at 7:00 AM)
Average temperature yesterday: 62 °F

Past Weeks' High & Low Weather Summary

 TemperatureHumidityPressure
High89 °F (Jul 18, 5:00 PM)100% (Jul 23, 5:00 AM)30.21 "Hg (Jul 23, 5:00 AM)
Low54 °F (Jul 25, 6:00 AM)18% (Jul 18, 5:00 PM)29.78 "Hg (Jul 28, 3:00 PM)
Average67 °F79%29.95 "Hg
* Reported Jul 16 1:00 PM — Jul 31 1:00 PM, Delémont, Weather by CustomWeather, © 2014

Note: Actual official high and low records may vary slightly from our data, if they occured in-between our weather recording intervals... More about our weather records

Advertising

Delémont weather history for previous 24 hours

 ConditionsComfort  
Time TempWeatherWind HumidityBarometerVisibility
1:00 PM
Jul 31
74 °FMild.13 mph61%29.95 "HgN/A
12:00 PM72 °FMild.13 mph66%29.95 "HgN/A
11:00 AM70 °FMild.12 mph69%29.97 "HgN/A
10:00 AM69 °FMild.8 mph80%29.98 "HgN/A
9:00 AM65 °FMild.6 mph90%29.99 "HgN/A
8:00 AM63 °FMild.3 mph97%29.99 "HgN/A
7:00 AM63 °FMild.1 mph98%30.00 "HgN/A
6:00 AM62 °FMild.1 mph98%29.99 "HgN/A
5:00 AM63 °FMild.2 mph98%29.98 "HgN/A
4:00 AM63 °FMild.2 mph98%29.98 "HgN/A
3:00 AM63 °FMild.No wind96%29.99 "HgN/A
2:00 AM64 °FMild.1 mph96%29.99 "HgN/A
1:00 AM64 °FMild.5 mph95%29.99 "HgN/A
12:00 AM64 °FMild.2 mph96%29.98 "HgN/A
11:00 PM
Jul 30
65 °FMild.3 mph93%29.97 "HgN/A
10:00 PM64 °FMild.6 mph95%29.96 "HgN/A
9:00 PM65 °FMild.5 mph96%29.94 "HgN/A
8:00 PM65 °FMild.7 mph95%29.93 "HgN/A
7:00 PM64 °FMild.8 mph94%29.92 "HgN/A
6:00 PM67 °FMild.9 mph84%29.90 "HgN/A
5:00 PM67 °FMild.8 mph86%29.90 "HgN/A
4:00 PM66 °FMild.9 mph90%29.90 "HgN/A
3:00 PM65 °FMild.6 mph86%29.90 "HgN/A
2:00 PM65 °FMild.7 mph88%29.89 "HgN/A
Weather by CustomWeather, © 2014

See weather overviewHow to use our weather pages